[[{"header":{"parameterUnit":"m.s-1","parameterCategory":1,"la1":30.2991,"la2":30.254,"lo1":-89.0895,"lo2":-89.0444,"dy":0.0017,"dx":0.0017,"nx":28,"ny":28,"refTime":"2024-07-02T21:00:00:Z","depth":0,"parameterNumber":2,"parameterNumberName":"U-component_of_WINDS"},"data":[0,0,0,0,0,0,0,0,0,0,0,0,0,0,0,0,0,0,0,0,0,0,0,0,0,0,0,0,0,0,0,0,0,0,0,0,0,0,0,0,0,0,0,0,0,0,0,0,0,0,0,0,0,0,0,0,0,0,2.4281,2.4282,0,2.4322,2.4322,2.4323,2.4307,2.4306,2.4305,2.4304,2.4348,2.435,2.4352,0,0,0,0,0,0,0,0,0,0,0,0,0,2.4191,2.4193,2.4281,2.4282,2.4282,2.4322,2.4322,2.4323,2.4307,2.4306,2.4305,2.4304,2.4347,2.435,2.4352,0,0,0,0,0,0,0,0,0,0,0,0,0,2.4231,2.4193,2.4281,2.4279,2.4279,2.4322,2.4322,2.4323,2.4307,2.4306,2.4305,2.4303,2.4346,2.4349,2.4352,2.44,0,0,2.4362,2.4363,0,0,0,0,0,0,0,0,2.4229,2.4234,2.4279,2.4279,2.428,2.4308,2.4307,2.4349,2.4308,2.4297,2.4304,2.4303,2.4336,2.434,2.435,2.4402,2.4404,2.4362,2.4364,2.4365,2.4366,0,0,0,0,0,0,0,2.4226,2.4232,2.4297,2.428,2.428,2.4276,2.4281,2.4314,2.4324,2.4298,2.4297,2.4301,2.4336,2.4348,2.4351,2.4404,2.4362,2.4365,2.4367,2.4368,2.4495,2.4497,0,0,0,0,0,0,2.4223,2.423,2.4296,2.4298,2.425,2.4279,2.4284,2.43,2.4323,2.4326,2.4303,2.4301,2.4343,2.4348,2.4353,2.4409,2.4365,2.4368,2.437,2.4494,2.4496,2.4497,0,0,0,0,0,0,2.4221,2.4229,2.4294,2.4264,2.4272,2.4282,2.4301,2.4302,2.4313,2.4327,2.4329,2.4313,2.4342,2.4349,2.4388,2.441,2.4369,2.4372,2.4492,2.4494,2.4497,2.4521,0,0,0,0,0,0,2.4218,2.4228,2.4246,2.4265,2.4274,2.4328,2.4302,2.4304,2.4319,2.4316,2.4337,2.4339,2.4341,2.4383,2.4391,2.4414,2.4375,2.449,2.4493,2.4496,2.4519,2.4524,2.4529,0,0,0,0,0,2.4215,2.4252,2.4247,2.4255,2.4296,2.433,2.4335,2.4336,2.432,2.4338,2.4347,2.4339,2.4407,2.4387,2.4396,2.442,2.4489,2.4492,2.4496,2.4516,2.4523,2.4529,0,0,0,0,0,0,2.4237,2.4255,2.4249,2.4293,2.431,2.4327,2.435,2.4343,2.4365,2.4362,2.4364,2.4368,2.4409,2.4418,2.4397,2.4466,2.4445,2.4451,2.4458,2.4465,2.447,2.4467,2.4377,0,0,0,0,0,2.4247,2.4272,2.4286,2.4324,2.4332,2.434,2.4354,2.4353,2.4371,2.4378,2.439,2.4408,2.4433,2.445,2.4474,2.452,2.4524,2.4541,2.4546,2.455,2.4555,2.4579,2.4586,2.4509,2.4509,2.4509,0,0,2.4268,2.428,2.4296,2.4328,2.4341,2.4367,2.4346,2.4375,2.4394,2.4383,2.442,2.4429,2.4449,2.4492,2.4511,2.4501,2.4577,2.4555,2.4558,2.456,2.4583,2.4591,2.4597,2.4511,2.4511,2.451,0,0,2.4318,2.4331,2.4362,2.4376,2.4395,2.44,2.4407,2.4425,2.443,2.4468,2.446,2.4483,2.4527,2.4541,2.4554,2.4609,2.4602,2.4617,2.4644,2.4668,2.4674,2.468,2.4698,2.4705,2.4622,2.4622,2.4622,0,2.4341,2.438,2.438,2.4409,2.4423,2.4414,2.4446,2.4459,2.4485,2.4495,2.4484,2.4537,2.4551,2.4596,2.4609,2.462,2.4629,2.4615,2.4673,2.4679,2.4684,2.4701,2.4709,2.4623,2.4623,2.4623,2.4623,0,2.4407,2.4434,2.4457,2.4482,2.4499,2.453,2.4534,2.4552,2.4549,2.4555,2.4593,2.4608,2.4634,2.4645,2.4644,2.469,2.4683,2.4673,2.4651,2.4693,2.4709,2.4716,2.4626,2.4625,2.4625,2.4624,0,0,2.4472,2.4496,2.4505,2.4515,2.4536,2.4557,2.4587,2.4612,2.4626,2.4645,2.467,2.4707,2.4696,2.4711,2.4711,2.4732,2.4773,2.4719,2.4719,2.4727,2.4824,2.4831,2.4839,2.4769,2.477,2.4771,2.4822,0,2.4524,2.4575,2.4576,2.4624,2.4648,2.4639,2.4665,2.4681,2.4687,2.4709,2.4716,2.4742,2.4727,2.4735,2.4756,2.4764,2.4793,2.4761,2.4792,2.4793,2.4786,2.4848,2.4856,2.4903,2.4829,2.483,2.4831,0,2.459,2.461,2.466,2.4676,2.4686,2.4709,2.4732,2.4753,2.477,2.4773,2.4789,2.4786,2.4817,2.4795,2.4837,2.4815,2.4828,2.4834,2.4836,2.4838,2.4814,2.4851,2.4918,2.4925,2.4841,2.484,2.484,0,2.4631,2.4671,2.4705,2.4715,2.4735,2.4751,2.476,2.4776,2.4791,2.4811,2.482,2.4844,2.4856,2.4875,2.4878,2.4862,2.492,2.4899,2.4923,2.4923,2.4935,2.4934,2.5004,2.4945,2.4945,2.4945,2.4945,0,2.4688,2.4718,2.4723,2.4745,2.4779,2.4779,2.4813,2.4821,2.4835,2.4857,2.4852,2.4873,2.4877,2.4899,2.4902,2.4936,2.4942,2.4945,2.4945,2.4945,2.4944,2.4953,2.4949,2.4947,2.4946,2.4946,2.4946,0,2.4739,2.4744,2.4781,2.4796,2.4801,2.4825,2.4838,2.4858,2.4864,2.4893,2.4899,2.4908,2.4934,2.4939,2.497,2.4972,2.5012,2.5009,2.5006,2.5005,2.5028,2.5025,2.5105,2.5115,2.5051,2.5052,2.5052,0,2.4774,2.4797,2.4815,2.4829,2.4839,2.4862,2.4877,2.4879,2.4894,2.4915,2.4933,2.4958,2.4978,2.5019,2.5029,2.5052,2.505,2.5076,2.5053,2.5052,2.5049,2.5047,2.5048,2.508,2.5081,2.5081,2.5082,0,2.4836,2.4837,2.4858,2.4879,2.4897,2.4914,2.493,2.4943,2.4946,2.4964,2.499,2.5005,2.5036,2.5061,2.5084,2.5094,2.5088,2.5089,2.5096,2.5095,2.5091,2.5092,2.5016,2.5087,2.5086,2.5086,2.5086,2.5086,2.4879,2.4899,2.4914,2.4937,2.495,2.4965,2.4984,2.4992,2.5013,2.5038,2.5038,2.5066,2.5082,2.5112,2.5124,2.5146,2.5137,2.5147,2.5149,2.5152,2.5153,2.5088,2.515,2.515,2.515,2.515,2.515,0,2.4939,2.4948,2.497,2.4992,2.5011,2.5003,2.5021,2.5037,2.5061,2.5077,2.5096,2.5125,2.5149,2.516,2.5184,2.5199,2.5197,2.5205,2.5203,2.5205,2.516,2.5151,2.5206,2.5206,2.5206,2.5206,2.5206,2.5206,2.4972,2.5005,2.5008,2.5046,2.5055,2.5082,2.5092,2.5106,2.5118,2.5151,2.517,2.5177,2.5191,2.5215,2.5236,2.5239,2.5247,2.5256,2.5258,2.5215,2.5209,2.5203,2.5195,2.5259,2.5259,2.5301,2.5302,2.5302]},{"header":{"parameterUnit":"m.s-1","parameterCategory":1,"la1":30.2991,"la2":30.254,"lo1":-89.0895,"lo2":-89.0444,"dy":0.0017,"dx":0.0017,"nx":28,"ny":28,"refTime":"2024-07-02T21:00:00:Z","depth":0,"parameterNumber":3,"parameterNumberName":"V-component_of_WINDS"},"data":[0,0,0,0,0,0,0,0,0,0,0,0,0,0,0,0,0,0,0,0,0,0,0,0,0,0,0,0,0,0,0,0,0,0,0,0,0,0,0,0,0,0,0,0,0,0,0,0,0,0,0,0,0,0,0,0,0,0,2.3979,2.3979,0,2.3941,2.394,2.394,2.393,2.393,2.3931,2.3931,2.3887,2.3886,2.3884,0,0,0,0,0,0,0,0,0,0,0,0,0,2.4042,2.4041,2.3979,2.3979,2.3978,2.3941,2.394,2.394,2.393,2.3931,2.3931,2.3931,2.3887,2.3886,2.3884,0,0,0,0,0,0,0,0,0,0,0,0,0,2.401,2.404,2.398,2.3969,2.3968,2.3941,2.394,2.3939,2.393,2.3931,2.3931,2.3931,2.3888,2.3886,2.3884,2.3863,0,0,2.3877,2.3876,0,0,0,0,0,0,0,0,2.4012,2.4008,2.3971,2.397,2.3969,2.3941,2.3946,2.3913,2.393,2.3944,2.3931,2.3932,2.3904,2.3901,2.3893,2.3861,2.3859,2.3877,2.3876,2.3875,2.3874,0,0,0,0,0,0,0,2.4014,2.4009,2.3964,2.3971,2.3969,2.3965,2.3961,2.394,2.3922,2.3943,2.3942,2.3938,2.3904,2.3895,2.3891,2.3858,2.3877,2.3875,2.3874,2.3873,2.3806,2.3806,0,0,0,0,0,0,2.4018,2.4011,2.3965,2.3963,2.3992,2.3964,2.3959,2.3949,2.3923,2.3919,2.3938,2.3938,2.3898,2.3894,2.389,2.3863,2.3875,2.3873,2.3872,2.3807,2.3806,2.3805,0,0,0,0,0,0,2.402,2.4014,2.3967,2.3987,2.398,2.3963,2.3951,2.3948,2.3939,2.3919,2.3915,2.3932,2.3898,2.3893,2.387,2.3861,2.3872,2.387,2.3807,2.3806,2.3806,2.3809,0,0,0,0,0,0,2.4022,2.4015,2.4008,2.3987,2.3979,2.3948,2.3951,2.3947,2.3936,2.3936,2.3912,2.3909,2.3898,2.3873,2.3868,2.3858,2.3868,2.3808,2.3807,2.3806,2.381,2.3809,2.3808,0,0,0,0,0,2.4024,2.4009,2.4007,2.4002,2.397,2.3948,2.3944,2.3933,2.3936,2.3927,2.3914,2.391,2.3863,2.3871,2.3864,2.3855,2.3808,2.3807,2.3806,2.381,2.3809,2.3808,0,0,0,0,0,0,2.4028,2.4006,2.4004,2.3982,2.3967,2.3946,2.3936,2.3932,2.3914,2.3915,2.3901,2.3895,2.3873,2.3861,2.387,2.3832,2.3836,2.3833,2.3841,2.3839,2.3838,2.3841,2.3867,0,0,0,0,0,2.4027,2.4012,2.3993,2.3976,2.3969,2.3954,2.3943,2.3937,2.392,2.3913,2.3898,2.3881,2.3862,2.385,2.3832,2.3808,2.3802,2.3798,2.3797,2.3797,2.3794,2.378,2.3778,2.3802,2.3802,2.3802,0,0,2.4023,2.401,2.4001,2.3976,2.3964,2.3948,2.3948,2.3931,2.3918,2.391,2.3887,2.3876,2.3856,2.3832,2.3821,2.3822,2.3787,2.3795,2.3795,2.3793,2.3779,2.3777,2.3775,2.3801,2.3801,2.3801,0,0,2.4008,2.3997,2.3981,2.3969,2.3951,2.3941,2.3937,2.3917,2.391,2.3887,2.3881,2.3865,2.3834,2.3819,2.3808,2.3789,2.3784,2.3783,2.3777,2.3764,2.3762,2.376,2.3753,2.375,2.3781,2.3781,2.3781,0,2.4006,2.3983,2.3973,2.3957,2.3946,2.3939,2.3922,2.3911,2.3887,2.3879,2.388,2.3841,2.3827,2.38,2.3795,2.3786,2.3781,2.3785,2.3763,2.3761,2.376,2.3752,2.375,2.3781,2.3781,2.3781,2.3781,0,2.398,2.3964,2.3953,2.3932,2.392,2.3903,2.389,2.3879,2.3873,2.3863,2.384,2.3823,2.3801,2.3794,2.3788,2.3766,2.3767,2.3766,2.3769,2.3758,2.375,2.3748,2.3781,2.3781,2.3781,2.3781,0,0,2.3966,2.3941,2.3937,2.3927,2.3907,2.3893,2.3876,2.3856,2.3847,2.383,2.3815,2.3789,2.3788,2.3775,2.3767,2.3756,2.3741,2.3756,2.3755,2.3753,2.3715,2.3715,2.3712,2.3738,2.3737,2.3737,2.3716,0,2.3948,2.3919,2.391,2.3885,2.3869,2.3863,2.3848,2.3833,2.3823,2.3807,2.3795,2.3777,2.3778,2.377,2.3758,2.3745,2.3733,2.3746,2.3722,2.3721,2.3726,2.3708,2.3708,2.369,2.3713,2.3713,2.3712,0,2.3923,2.3908,2.3882,2.3864,2.3857,2.3844,2.3825,2.381,2.3793,2.3787,2.3773,2.3766,2.3747,2.3751,2.3724,2.3733,2.3723,2.3714,2.3713,2.371,2.3715,2.3703,2.3684,2.3681,2.3708,2.3708,2.3709,0,2.3915,2.3888,2.3869,2.386,2.3839,2.383,2.382,2.3803,2.3792,2.3775,2.3768,2.3748,2.3737,2.3722,2.371,2.3714,2.3683,2.3687,2.3676,2.3676,2.3669,2.3669,2.3646,2.3663,2.3663,2.3663,2.3663,0,2.3895,2.3879,2.3865,2.3853,2.3834,2.3824,2.3805,2.3795,2.3781,2.3765,2.3759,2.3744,2.3729,2.3713,2.3703,2.3681,2.3676,2.367,2.3667,2.367,2.3671,2.3662,2.3663,2.3663,2.3663,2.3663,2.3663,0,2.3882,2.3872,2.3851,2.3833,2.3828,2.3815,2.3798,2.3786,2.3776,2.3757,2.3752,2.3736,2.3716,2.3703,2.3677,2.3671,2.3647,2.3645,2.3653,2.3652,2.3641,2.3642,2.3611,2.3606,2.3628,2.3627,2.3627,0,2.387,2.3858,2.3839,2.3829,2.382,2.3804,2.3793,2.3783,2.3771,2.3751,2.3741,2.3721,2.3704,2.3673,2.3658,2.3638,2.3635,2.3626,2.3632,2.3635,2.3634,2.3635,2.3633,2.3624,2.3624,2.3624,2.3624,0,2.3849,2.3845,2.383,2.3814,2.3801,2.3787,2.3773,2.3765,2.3752,2.3739,2.372,2.3707,2.3682,2.3661,2.364,2.3629,2.3624,2.3622,2.3619,2.3621,2.3626,2.3622,2.365,2.3623,2.3623,2.3623,2.3623,2.3623,2.3836,2.3825,2.381,2.3793,2.3782,2.3769,2.3757,2.3746,2.373,2.371,2.3704,2.3684,2.3666,2.3638,2.3626,2.3609,2.361,2.3605,2.3603,2.3602,2.3602,2.363,2.3605,2.3605,2.3605,2.3605,2.3605,0,2.3814,2.3805,2.379,2.3771,2.3758,2.3757,2.3741,2.3729,2.3712,2.3697,2.3682,2.3659,2.364,2.3624,2.3604,2.3593,2.359,2.3588,2.3588,2.3586,2.3602,2.3607,2.3591,2.3591,2.3591,2.3591,2.3591,2.3591,2.3801,2.3782,2.3776,2.3751,2.3741,2.3723,2.3714,2.3701,2.369,2.3665,2.365,2.3641,2.3625,2.3604,2.3586,2.3581,2.3574,2.3572,2.3567,2.3583,2.3584,2.3586,2.3591,2.3571,2.3571,2.3552,2.3551,2.3551]}]]